User: anonymous   Login
Location: Unspecified
(0.0000°N, 0.0000°E)
Time: 00:45:38
(UTC+00:00)
Language:

STARLINK-30357 - Orbit

View from above orbital plane
View from above orbital plane
View from above satellite
View from above satellite

Ground track
Ground track

The orbit is defined by the following mean orbital elements,

1 57750U          26145.35088007 +.00000000 +00000-0 +20842-3 0 00005
2 57750  43.0037 106.9253 0001788 290.7060  69.3600 15.27592423    01
Epoch (UTC): 25 May 2026 08:25:16
Eccentricity: 0.0001788
inclination: 43.0037°
perigee height: 482 km
apogee height: 484 km
right ascension of ascending node: 106.9253°
argument of perigee: 290.7060°
revolutions per day: 15.27592423
mean anomaly at epoch: 69.3600°

The dashed part of the orbit path shows where the satellite is in the earth's shadow,  

DLR